Weather History for Gainesville, FL

Change the Weather History Date:

Monday, January 7, 2013

  Actual Average Record
Temperature  
Mean Temperature 56 °F 54 °F  
Max Temperature 65 °F 66 °F 85 °F (1923)
Min Temperature 47 °F 42 °F 21 °F (2010)
Degree Days  
Heating Degree Days 9 12  
Month to date heating degree days 46 81  
Since 1 July heating degree days 438 538  
Cooling Degree Days 0 0  
Month to date cooling degree days 3 0  
Year to date cooling degree days 3 0  
Growing Degree Days 6 (Base 50)    
Moisture  
Dew Point 47 °F    
Average Humidity 75    
Maximum Humidity 93    
Minimum Humidity 56    
Precipitation  
Precipitation 0.00 in 0.10 in 2.00 in (1908)
Month to date precipitation 0.19 0.61  
Year to date precipitation 0.19 0.61  
Snow  
Snow 0.00 in 0.00 in 0.00 in ()
Month to date snowfall 0.0 0.0  
Since 1 July snowfall 0.0 0.0  
Snow Depth 0.00 in    
Sea Level Pressure  
Sea Level Pressure 30.24 in    
Wind  
Wind Speed 8 mph (NNE)    
Max Wind Speed 16 mph    
Max Gust Speed 22 mph    
Visibility 10 miles    
Events      
T = Trace of Precipitation, MM = Missing Value Source: NWS Daily Summary

Daily Weather History Graph

Daily Weather History Graph

Search for Another Location

Airport:

Trip Planner

Search our weather history database for the weather conditions in past years. The results will help you decide how hot, cold, wet, or windy it might be!

Date:

Astronomy

Jan. 07, 2013 Rise Set
Actual Time 7:25 AM EST 5:45 PM EST
Civil Twilight 6:59 AM EST 6:11 PM EST
Nautical Twilight 6:29 AM EST 6:41 PM EST
Astronomical Twilight 6:00 AM EST 7:10 PM EST
Moon 2:52 AM EST (1/7) 1:52 PM EST (1/7)
Length of Visible Light 11h 12m
Length of Day
10h 20m
Waning Crescent, 23% of the Moon is Illuminated
Jan 7
Waning Crescent
Jan 11
New
Jan 18
First Quarter
Jan 26
Full
Feb 3
Last Quarter

Hourly Weather History & Observations

Time (EST) Temp. Dew Point Humidity Pressure Visibility Wind Dir Wind Speed Gust Speed Precip Events Conditions
12:51 AM 53.6 °F 51.8 °F 94% 30.20 in 10.0 mi North 4.6 mph - N/A   Overcast
12:53 AM 54.0 °F 52.0 °F 93% 30.19 in 10.0 mi North 4.6 mph - N/A   Overcast
1:53 AM 53.1 °F 48.0 °F 83% 30.19 in 10.0 mi North 5.8 mph - N/A   Clear
2:53 AM 51.1 °F 48.0 °F 89% 30.19 in 10.0 mi North 5.8 mph - N/A   Clear
3:53 AM 51.1 °F 46.0 °F 83% 30.20 in 10.0 mi North 6.9 mph - N/A   Clear
4:53 AM 50.0 °F 44.1 °F 80% 30.21 in 10.0 mi North 8.1 mph - N/A   Clear
5:53 AM 48.9 °F 43.0 °F 80% 30.23 in 10.0 mi North 3.5 mph - N/A   Clear
6:53 AM 48.0 °F 42.1 °F 80% 30.24 in 10.0 mi North 8.1 mph - N/A   Clear
7:53 AM 48.0 °F 41.0 °F 77% 30.26 in 10.0 mi NNE 6.9 mph - N/A   Clear
8:53 AM 48.0 °F 41.0 °F 77% 30.27 in 10.0 mi NE 10.4 mph - N/A   Clear
9:53 AM 51.1 °F 42.1 °F 71% 30.29 in 10.0 mi NNE 6.9 mph - N/A   Clear
10:53 AM 53.1 °F 43.0 °F 69% 30.29 in 10.0 mi NE 6.9 mph - N/A   Clear
11:53 AM 57.0 °F 43.0 °F 59% 30.26 in 10.0 mi ENE 11.5 mph - N/A   Clear
12:53 PM 59.0 °F 44.1 °F 58% 30.25 in 10.0 mi ENE 9.2 mph - N/A   Clear
1:53 PM 62.1 °F 46.0 °F 56% 30.22 in 10.0 mi NE 9.2 mph - N/A   Clear
2:53 PM 64.0 °F 48.0 °F 56% 30.22 in 10.0 mi NE 10.4 mph - N/A   Overcast
3:53 PM 63.0 °F 50.0 °F 63% 30.22 in 10.0 mi NE 10.4 mph - N/A   Overcast
4:53 PM 62.1 °F 50.0 °F 65% 30.22 in 10.0 mi NE 12.7 mph - N/A   Overcast
6:53 PM 59.0 °F 50.0 °F 72% 30.26 in 10.0 mi NNE 11.5 mph - N/A   Overcast
7:53 PM 57.0 °F 48.9 °F 74% 30.25 in 10.0 mi NE 10.4 mph - N/A   Overcast
8:53 PM 55.9 °F 48.9 °F 77% 30.27 in 10.0 mi NNE 5.8 mph 18.4 mph N/A   Overcast
9:53 PM 55.9 °F 48.9 °F 77% 30.25 in 10.0 mi NNE 5.8 mph - N/A   Overcast
10:53 PM 55.9 °F 48.9 °F 77% 30.25 in 10.0 mi NNE 5.8 mph - N/A   Overcast
11:53 PM 55.9 °F 50.0 °F 80% 30.23 in 10.0 mi NNE 6.9 mph - N/A   Overcast